{"data":{"norad_id":58850,"intl_designator":"2024-018B","name":"2024-018B","alt_names":[],"object_type":"PAYLOAD","status":"ACTIVE","operator":null,"country":"IRAN","launch_date":"2024-01-28","launch_site_code":"SEMLS","launch_vehicle":null,"mission":null,"orbit_class":"UNKNOWN","rcs_meters":null,"size_class":null,"mass_kg":null,"dimensions":null,"purposes":[],"wikipedia_slug":null,"has_3d_model":false,"image_url":null,"decayed_at":null,"tle_current":{"epoch":"2026-05-25T04:18:18.724032Z","epoch_age_seconds":62836,"freshness":"FRESH","line1":"1 58850U 24018B   26145.17938338  .00003508  00000+0  36538-3 0  9994","line2":"2 58850  58.6930 299.0655 0420999  81.7081 283.1446 14.43683639122070","mean_motion":14.43683639,"eccentricity":0.0420999,"inclination_deg":58.693,"raan_deg":299.0655,"arg_perigee_deg":81.7081,"mean_anomaly_deg":283.1446,"bstar":0.00036538,"rev_number":12207,"period_min":99.744844445106,"perigee_km":446.41326405703,"apogee_km":1046.2939481947,"semimajor_km":7124.4906061259,"source":"CELESTRAK","updated_at":"2026-05-25T13:38:01.011159Z"}}}